Tracking 27112 objects as of 27-Mar-2023
HD Live streaming from Space Station
objects crossing your sky now

STARLINK-2012

Track STARLINK-2012 now!
10-day predictions
STARLINK-2012 is classified as:


NORAD ID: 47635
Int'l Code: 2021-012R
Perigee: 553.7 km
Apogee: 555.3 km
Inclination: 53.1 °
Period: 95.6 minutes
Semi major axis: 6925 km
RCS: Unknown
Launch date: February 16, 2021
Source: United States (US)
Launch site: AIR FORCE EASTERN TEST RANGE (AFETR)
Your satellite tracking list
Your tracking list is empty




NASA's NSSDC Master Catalog

Two Line Element Set (TLE):
1 47635U 21012R   23085.42966081  .00004305  00000-0  30811-3 0  9993
2 47635  53.0513 141.6046 0001177  87.9326 272.1798 15.06352249118123
Source of the keplerian elements: AFSPC